EDT,Max TemperatureF,Mean TemperatureF,Min TemperatureF,Max Dew PointF,MeanDew PointF,Min DewpointF,Max Humidity, Mean Humidity, Min Humidity, Max Sea Level PressureIn, Mean Sea Level PressureIn, Min Sea Level PressureIn, Max VisibilityMiles, Mean VisibilityMiles, Min VisibilityMiles, Max Wind SpeedMPH, Mean Wind SpeedMPH, Max Gust SpeedMPH,PrecipitationIn, CloudCover, Events, WindDirDegrees
2013-6-1,86,76,66,68,65,62,87,67,49,30.01,29.95,29.90,10,10,8,12,4,20,0.00,0,,193
2013-6-2,84,75,66,68,66,63,90,74,56,29.90,29.82,29.76,10,9,0,15,5,22,0.26,3,Rain-Thunderstorm,166
2013-6-3,75,70,63,68,63,49,94,80,54,29.87,29.83,29.80,10,7,0,12,5,16,0.59,7,Fog-Rain-Thunderstorm,349
2013-6-4,73,63,53,49,43,37,69,51,27,30.11,29.99,29.89,10,10,10,15,10,21,0.00,0,,310
2013-6-5,72,62,53,49,44,38,80,53,39,30.20,30.15,30.11,10,10,10,13,7,17,0.00,1,,117
2013-6-6,69,60,52,57,53,46,96,79,47,30.15,30.11,30.03,10,8,2,14,4,18,0.13,5,Rain,115
2013-6-7,60,58,57,58,57,55,96,93,88,30.00,29.84,29.65,10,3,1,15,9,26,2.87,8,Rain,82
2013-6-8,75,65,55,61,57,52,94,81,60,30.04,29.78,29.59,10,8,2,21,11,25,0.56,6,Rain,325
2013-6-9,79,68,57,59,57,55,93,68,44,30.17,30.13,30.05,10,10,10,13,4,,0.00,1,,310
2013-6-10,69,64,60,64,61,58,100,91,84,30.16,30.06,29.85,10,4,1,14,5,23,1.06,7,Rain,102
2013-6-11,78,69,60,67,62,53,97,78,58,29.82,29.69,29.60,10,7,1,21,6,29,0.34,6,Rain,272
2013-6-12,73,66,59,56,52,50,87,60,48,29.84,29.77,29.68,10,10,10,21,14,32,0.00,2,,307
2013-6-13,62,58,54,58,55,51,93,87,78,29.83,29.67,29.51,10,7,1,17,6,28,0.60,7,Rain-Thunderstorm,94
2013-6-14,73,61,51,57,52,48,93,77,55,29.87,29.74,29.56,10,9,3,16,10,25,0.34,5,Rain,346
2013-6-15,77,67,57,55,52,48,84,60,37,29.99,29.94,29.87,10,10,10,13,8,23,0.00,1,,312
2013-6-16,79,68,57,62,56,50,87,65,41,29.98,29.88,29.75,10,10,10,10,3,18,0.00,3,,254
2013-6-17,84,72,62,64,61,57,96,72,44,29.92,29.87,29.82,10,8,2,23,3,30,0.16,2,Rain-Thunderstorm,265
2013-6-18,80,71,62,68,63,59,93,83,56,29.90,29.87,29.82,10,8,1,8,2,,0.29,3,Rain,100
2013-6-19,73,65,57,59,51,43,90,63,33,30.16,30.02,29.88,10,10,10,15,7,20,0.00,2,,348
2013-6-20,78,66,55,55,53,50,89,63,40,30.26,30.23,30.17,10,10,10,10,2,,0.00,1,,166
2013-6-21,80,70,61,58,53,46,78,56,45,30.29,30.26,30.23,10,10,10,12,3,20,0.00,0,,214
2013-6-22,82,70,59,60,55,50,83,61,44,30.25,30.21,30.14,10,10,10,9,3,17,0.00,0,,186
2013-6-23,87,76,64,68,64,56,87,70,49,30.18,30.12,30.06,10,10,10,12,3,21,0.00,1,,199
2013-6-24,91,80,70,70,66,61,93,67,38,30.05,30.01,29.93,10,10,10,24,5,30,0.00,2,Thunderstorm,293
2013-6-25,90,78,68,69,66,63,90,64,45,29.97,29.88,29.79,10,10,8,12,4,18,0.00,1,,272
2013-6-26,82,77,71,69,67,65,87,70,60,29.83,29.80,29.75,10,10,10,13,5,,0.00,2,,284
2013-6-27,81,75,69,72,69,66,100,84,67,29.80,29.71,29.56,10,6,1,16,6,23,0.98,5,Rain-Thunderstorm,111
2013-6-28,84,78,71,70,68,62,94,77,55,29.55,29.51,29.47,10,9,5,12,6,17,0.01,5,,185
2013-6-29,82,74,66,68,66,64,93,78,58,29.70,29.59,29.49,10,9,5,14,4,18,0.00,3,,175
2013-6-30,82,74,66,73,69,64,100,90,74,29.91,29.81,29.71,10,4,0,15,3,23,0.00,5,Fog,143